Hourly Data Report for October 02, 2019

QUALICUM BEACH AIRPORT
BRITISH COLUMBIA
Current Station Operator: ECCC - MSC

49°20'14.000" N
124°23'38.000" W
58.20 m
1026562
71766
VOQ

Download Data

Hourly Data (October 2019)
Hourly Data Report for October 2, 2019
TIME
LST
Temp Definition
°C
Dew Point Definition
°C
Rel Hum Definition
%
Precip. Amount Definition
mm

Wind Dir Definition
10's deg

Wind Spd Definition
km/h
Visibility Definition
km
Stn Press Definition
kPa
Hmdx Definition


Wind Chill Definition


Weather Definition


00:00 6.5 5.5 93 0.0 27 2   101.18     LegendNANA
01:00 6.4 5.4 93 0.0 20 2   101.18     LegendNANA
02:00 6.2 4.8 91 0.0 0 1   101.14     LegendNANA
03:00 6.0 4.7 92 0.0 14 3   101.10     LegendNANA
04:00 6.5 5.1 91 0.0 0 1   101.09     LegendNANA
05:00 6.1 5.2 94 0.0 25 2   101.07     LegendNANA
06:00 6.4 5.2 92 0.0 0 1   101.08     LegendNANA
07:00 6.6 5.4 92 0.0 0 1   101.07     LegendNANA
08:00 8.1 6.5 90 0.0 15 2   101.07     LegendNANA
09:00 10.5 7.3 81 0.0 13 8   101.06     LegendNANA
10:00 11.6 7.9 78 0.0 13 6   101.04     LegendNANA
11:00 12.0 8.5 79 0.0 9 9   101.01     LegendNANA
12:00 12.5 8.5 76 0.0 8 7   100.98     LegendNANA
13:00 12.7 8.8 77 0.0 10 6   100.91     LegendNANA
14:00 13.4 8.9 74 0.0 1 3   100.87     LegendNANA
15:00 13.5 8.2 70 0.0 9 4   100.84     LegendNANA
16:00 13.1 7.9 71 0.0 8 6   100.79     LegendNANA
17:00 12.9 8.3 74 0.0 28 1   100.76     LegendNANA
18:00 12.0 9.1 83 0.0 29 3   100.75     LegendNANA
19:00 10.9 9.4 91 0.1 31 6   100.75     LegendNANA
20:00 10.4 9.2 92 0.0 10 2   100.74     LegendNANA
21:00 10.1 9.2 94 0.0 25 5   100.73     LegendNANA
22:00 10.0 9.2 95 0.7 27 2   100.72     LegendNANA
23:00 9.5 8.9 96 0.0 0 1   100.71     LegendNANA

Notes on Data Quality.

Legend

  • E = Estimated
  • M = Missing
  • NA = Not Available*
  • [empty] = Indicates an unobserved value
Date modified: